Hourly Data Report for November 24, 2021

MOUNT FOREST (AUT)
ONTARIO
Current Station Operator: ECCC - MSC

43°59'00.000" N
80°45'00.000" W
414.50 m
6145504
71631
WLS

Download Data

Hourly Data (November 2021)
Hourly Data Report for November 24, 2021
TIME
LST
Temp Definition
°C
Dew Point Definition
°C
Rel Hum Definition
%
Precip. Amount Definition
mm

Wind Dir Definition
10's deg

Wind Spd Definition
km/h
Visibility Definition
km
Stn Press Definition
kPa
Hmdx Definition


Wind Chill Definition


Weather Definition


00:00 -4.8 -8.4 76 0.0 19 10   97.09   -9 LegendNANA
01:00 -4.6 -8.5 74 0.0 18 11   97.09   -9 LegendNANA
02:00 -4.5 -8.0 77 0.0 19 11   97.13   -9 LegendNANA
03:00 -4.7 -7.7 80 0.0 18 9   97.16   -9 LegendNANA
04:00 -4.3 -7.1 81 0.0 18 11   97.13   -9 LegendNANA
05:00 -3.2 -6.1 80 0.0 19 13   97.15   -8 LegendNANA
06:00 -2.5 -5.4 81 0.0 19 14   97.13   -7 LegendNANA
07:00 -1.7 -5.2 77 0.0 19 14   97.12   -6 LegendNANA
08:00 -1.1 -5.1 74 0.0 19 12   97.11   -5 LegendNANA
09:00 1.3 -4.2 67 0.0 19 15   97.11     LegendNANA
10:00 2.9 -3.1 65 0.0 19 19   97.05     LegendNANA
11:00 3.3 -2.3 67 0.0 19 19   97.02     LegendNANA
12:00 3.8 -1.6 68 0.0 19 15   96.97     LegendNANA
13:00 4.4 -1.0 68 0.0 20 15   96.96     LegendNANA
14:00 5.2 -0.6 66 0.0 19 17   96.89     LegendNANA
15:00 5.8 -1.2 61 0.0 19 20   96.85     LegendNANA
16:00 5.6 -1.1 62 0.0 19 18   96.82     LegendNANA
17:00 5.2 -0.5 67 0.0 18 19   96.81     LegendNANA
18:00 4.8 -0.5 68 0.0 18 16   96.78     LegendNANA
19:00 4.9 -0.4 68 0.0 20 20   96.81     LegendNANA
20:00 4.7 0.0 72 0.0 19 15   96.79     LegendNANA
21:00 4.3 0.6 77 0.0 19 14   96.83     LegendNANA
22:00 4.2 1.0 80 0.0 18 10   96.80     LegendNANA
23:00 4.3 0.7 77 0.0 19 10   96.76     LegendNANA

Notes on Data Quality.

Legend

  • E = Estimated
  • M = Missing
  • NA = Not Available*
  • [empty] = Indicates an unobserved value
Date modified: